Regional Weather Roundup
Issued by NWS

Home | Current Version | Previous Version | Graphics & Text | Print | Product List | Glossary On
Versions: 1 2 3 4 5 6 7 8 9 10 11 12 13 14 15 16 17 18 19 20 21 22 23 24 25 26 27 28 29 30 31 32 33 34 35 36 37 38 39 40 41 42 43 44 45 46 47 48 49 50
000
ASUS45 KBOI 052110
RWRID
WEATHER ROUNDUP FOR IDAHO
NATIONAL WEATHER SERVICE BOISE ID
300 PM MDT TUE MAY 05 2015

NOTE: "FAIR" INDICATES FEW OR NO CLOUDS BELOW 12000 FEET
WITH NO SIGNIFICANT WEATHER AND/OR OBSTRUCTIONS TO VISIBILITY

IDZ012-014-052200-
SOUTHWEST IDAHO


CITY           SKY/WX    TMP DP  RH WIND       PRES   REMARKS
BOISE          SUNNY     69  24  18 NW15G24   29.84F
CALDWELL       SUNNY     68  30  24 NW17      29.87F
MOUNTAIN HOME  MOSUNNY   72  18  13 N28G39    29.80F
$$

IDZ016-017-052200-
SOUTHCENTRAL IDAHO


CITY           SKY/WX    TMP DP  RH WIND       PRES   REMARKS
BURLEY         LGT RAIN  69  37  30 W15G23    29.77F
JEROME         MOSUNNY   71  20  14 SW23      29.79F
TWIN FALLS     PTSUNNY   70  22  16 W21G29    29.81S
$$

IDZ019>023-052200-
SOUTHEAST IDAHO


CITY           SKY/WX    TMP DP  RH WIND       PRES   REMARKS
IDAHO FALLS    PTSUNNY   72  38  29 W7        29.76F
POCATELLO      MOSUNNY   70  38  31 SW16      29.78F
REXBURG        PTSUNNY   70  36  28 W7        29.76F
$$

IDZ006-010-011-018-031-032-052200-
CENTRAL IDAHO MOUNTAINS


CITY           SKY/WX    TMP DP  RH WIND       PRES   REMARKS
MCCALL         MOSUNNY   57  33  40 W9G20     29.87F
HAILEY         MOSUNNY   70  37  30 NW17      29.79F
STANLEY        NOT AVBL
SALMON           N/A     63  43  48 E5        29.72F
CHALLIS        PTSUNNY   62  36  37 SE21G26   29.76R
$$

IDZ002-004-006-007-026-052200-
NORTHERN IDAHO


CITY           SKY/WX    TMP DP  RH WIND       PRES   REMARKS
LEWISTON       CLOUDY    65  27  23 N10       29.95F
LOWELL           N/A     61  35  37 CALM      29.94F
COEUR D`ALENE  SUNNY     61  28  29 SW24      29.95S
MULLAN PASS    PTSUNNY   42  22  44 VRB3      29.93F
$$



USA.gov is the U.S. government's official web portal to all federal, state and local government web resources and services.